[[{"header":{"parameterUnit":"m.s-1","parameterCategory":2,"la1":30.2991,"la2":30.254,"lo1":-89.0895,"lo2":-89.0444,"dy":0.0017,"dx":0.0017,"nx":28,"ny":28,"refTime":"2024-02-27T03:00:00:Z","depth":"0","parameterNumber":2,"parameterNumberName":"U-component_of_CURRENTS"},"data":[0,0,0,0,0,0,0,0,0,0,0,0,0,0,0,0,0,0,0,0,0,0,0,0,0,0,0,0,0,0,0,0,0,0,0,0,0,0,0,0,0,0,0,0,0,0,0,0,0,0,0,0,0,0,0,0,0,0,0.2998,0.2998,0,0.2974,0.2974,0.2973,0.2952,0.2952,0.2952,0.2951,0.2897,0.2896,0.2895,0,0,0,0,0,0,0,0,0,0,0,0,0,0.2971,0.2972,0.2999,0.2998,0.2998,0.2974,0.2974,0.2973,0.2952,0.2952,0.2951,0.2951,0.2898,0.2896,0.2894,0,0,0,0,0,0,0,0,0,0,0,0,0,0.2967,0.2972,0.2999,0.2985,0.2984,0.2974,0.2974,0.2973,0.2952,0.2952,0.2951,0.2951,0.2898,0.2896,0.2894,0.2886,0,0,0.2888,0.2887,0,0,0,0,0,0,0,0,0.2967,0.2968,0.2988,0.2986,0.2985,0.2967,0.2944,0.2943,0.2952,0.2963,0.2951,0.2951,0.2919,0.2915,0.291,0.2884,0.2882,0.2888,0.2887,0.2886,0.2885,0,0,0,0,0,0,0,0.2968,0.2969,0.2988,0.2987,0.2986,0.2962,0.2961,0.2943,0.2941,0.2962,0.2961,0.296,0.2917,0.2912,0.2908,0.2881,0.2888,0.2886,0.2885,0.2884,0.2934,0.2936,0,0,0,0,0,0,0.2977,0.2969,0.2988,0.2987,0.2977,0.2963,0.2962,0.2972,0.2942,0.2937,0.296,0.2959,0.2915,0.291,0.2906,0.2958,0.2886,0.2884,0.2883,0.2932,0.2935,0.2937,0,0,0,0,0,0,0.2976,0.2979,0.2989,0.2978,0.2977,0.2964,0.2975,0.2971,0.2974,0.2941,0.2936,0.2967,0.2915,0.2909,0.2924,0.2953,0.2883,0.2882,0.2929,0.2933,0.2936,0.3021,0,0,0,0,0,0,0.2976,0.2979,0.2989,0.2979,0.2979,0.2993,0.2975,0.2971,0.2974,0.2973,0.2945,0.2939,0.2914,0.2928,0.2922,0.2949,0.288,0.2925,0.293,0.2935,0.3015,0.3028,0.3038,0,0,0,0,0,0.2975,0.3002,0.299,0.2992,0.2994,0.2993,0.2991,0.2979,0.2975,0.298,0.2981,0.294,0.2954,0.2928,0.2921,0.2948,0.2923,0.2929,0.2934,0.301,0.3025,0.3038,0,0,0,0,0,0,0.2988,0.3001,0.2989,0.3015,0.3005,0.299,0.2995,0.2988,0.2991,0.2993,0.2965,0.2961,0.2991,0.2963,0.2935,0.2982,0.2934,0.2939,0.2994,0.3008,0.3019,0.2994,0.2878,0,0,0,0,0,0.2997,0.3024,0.3014,0.3031,0.3028,0.3011,0.301,0.3003,0.3003,0.3003,0.2987,0.2986,0.3007,0.3002,0.3005,0.3017,0.3016,0.3035,0.3046,0.3056,0.3035,0.3092,0.3106,0.2956,0.2956,0.2956,0,0,0.3004,0.3015,0.3027,0.3036,0.3024,0.3023,0.301,0.3015,0.3022,0.2997,0.3008,0.3024,0.3024,0.3054,0.3063,0.3031,0.3106,0.3063,0.3071,0.3044,0.3099,0.3114,0.3126,0.296,0.2959,0.2958,0,0,0.3024,0.304,0.3058,0.3051,0.3045,0.3043,0.3048,0.3039,0.3045,0.3067,0.3067,0.3101,0.3105,0.3116,0.3125,0.3197,0.3173,0.3206,0.3226,0.3284,0.3296,0.3306,0.335,0.3364,0.3201,0.3201,0.3201,0,0.3021,0.3045,0.3059,0.306,0.3057,0.3055,0.3055,0.3065,0.3065,0.3077,0.3082,0.3136,0.3135,0.3185,0.3216,0.3219,0.3245,0.3173,0.3297,0.3307,0.3317,0.3359,0.3373,0.3206,0.3205,0.3205,0.3204,0,0.3043,0.3052,0.306,0.3067,0.3072,0.3074,0.3082,0.3097,0.3116,0.3124,0.3183,0.3207,0.3232,0.3259,0.3257,0.3327,0.3324,0.3315,0.3257,0.3337,0.3377,0.339,0.3213,0.3211,0.3209,0.3208,0,0,0.304,0.307,0.3064,0.3062,0.3073,0.3076,0.3108,0.313,0.3151,0.3185,0.3229,0.3286,0.3298,0.331,0.3327,0.3372,0.3477,0.337,0.337,0.3402,0.3607,0.3562,0.3571,0.3499,0.3501,0.3503,0.3617,0,0.3035,0.3053,0.3069,0.3071,0.3077,0.3088,0.3115,0.3141,0.3179,0.3222,0.3275,0.3326,0.3321,0.3354,0.3401,0.3463,0.3511,0.3446,0.3531,0.3533,0.3476,0.3584,0.3383,0.3463,0.3629,0.3631,0.3633,0,0.3034,0.305,0.3061,0.3079,0.308,0.3086,0.3127,0.3149,0.3214,0.3248,0.3307,0.3349,0.3429,0.3421,0.3544,0.3509,0.3554,0.3597,0.3602,0.3527,0.3512,0.3407,0.348,0.3411,0.3652,0.3651,0.3649,0,0.3028,0.3037,0.3052,0.3051,0.3077,0.3087,0.3107,0.3158,0.3179,0.327,0.3312,0.3402,0.3461,0.3543,0.3624,0.36,0.3761,0.3739,0.3738,0.3735,0.3557,0.3535,0.3553,0.382,0.382,0.382,0.3819,0,0.3023,0.3021,0.3047,0.3047,0.3052,0.3082,0.3097,0.3135,0.3197,0.3226,0.332,0.3374,0.3497,0.3596,0.3659,0.3745,0.3793,0.3754,0.3769,0.3585,0.3565,0.3488,0.3462,0.3824,0.3823,0.3822,0.3821,0,0.3002,0.3024,0.3024,0.3046,0.3047,0.305,0.3067,0.3079,0.3159,0.321,0.3247,0.3377,0.3504,0.3619,0.3764,0.3782,0.3771,0.3886,0.3658,0.3643,0.3549,0.3534,0.3423,0.3339,0.3901,0.3901,0.39,0,0.2993,0.2998,0.3002,0.2987,0.2988,0.2993,0.2988,0.3049,0.307,0.3199,0.3227,0.3376,0.3445,0.365,0.3723,0.3836,0.3746,0.3714,0.362,0.3529,0.3525,0.3394,0.3322,0.3433,0.3429,0.3426,0.3423,0,0.2957,0.2958,0.2952,0.2932,0.2916,0.2892,0.2907,0.2917,0.2997,0.3052,0.3132,0.3206,0.3393,0.3419,0.3584,0.3626,0.3518,0.3649,0.3609,0.3206,0.3006,0.2936,0.338,0.3393,0.3396,0.3399,0.34,0.3401,0.2905,0.2892,0.2883,0.2849,0.2825,0.2783,0.2743,0.2776,0.279,0.2844,0.2982,0.3023,0.3137,0.3327,0.3361,0.331,0.3335,0.3218,0.3227,0.3118,0.2962,0.3344,0.3341,0.3344,0.3346,0.3348,0.335,0,0.2833,0.2826,0.2796,0.2742,0.2673,0.2695,0.2668,0.2618,0.2597,0.2666,0.2717,0.2775,0.2813,0.2912,0.2973,0.2909,0.2765,0.2848,0.2603,0.2572,0.2957,0.2861,0.2685,0.2685,0.2685,0.2685,0.2686,0.2686,0.279,0.2751,0.2737,0.2602,0.2556,0.2442,0.2405,0.2357,0.2364,0.2327,0.2331,0.2411,0.2607,0.2701,0.2658,0.2599,0.2449,0.2302,0.2388,0.2652,0.2686,0.2718,0.2622,0.2399,0.2398,0.183,0.1826,0.1823]},{"header":{"parameterUnit":"m.s-1","parameterCategory":2,"la1":30.2991,"la2":30.254,"lo1":-89.0895,"lo2":-89.0444,"dy":0.0017,"dx":0.0017,"nx":28,"ny":28,"refTime":"2024-02-27T03:00:00:Z","depth":"0","parameterNumber":3,"parameterNumberName":"V-component_of_CURRENTS"},"data":[0,0,0,0,0,0,0,0,0,0,0,0,0,0,0,0,0,0,0,0,0,0,0,0,0,0,0,0,0,0,0,0,0,0,0,0,0,0,0,0,0,0,0,0,0,0,0,0,0,0,0,0,0,0,0,0,0,0,0.056,0.056,0,0.0532,0.0532,0.0531,0.0511,0.0511,0.0511,0.0511,0.043,0.0428,0.0426,0,0,0,0,0,0,0,0,0,0,0,0,0,0.0591,0.0591,0.056,0.056,0.0559,0.0532,0.0532,0.0531,0.0511,0.0511,0.0511,0.0511,0.043,0.0428,0.0425,0,0,0,0,0,0,0,0,0,0,0,0,0,0.0572,0.0591,0.056,0.0546,0.0545,0.0532,0.0532,0.0531,0.0511,0.0511,0.0511,0.0511,0.0431,0.0428,0.0425,0.0411,0,0,0.0416,0.0415,0,0,0,0,0,0,0,0,0.0573,0.0571,0.0548,0.0547,0.0545,0.0525,0.0513,0.0488,0.0512,0.0524,0.0511,0.0511,0.0457,0.0452,0.0448,0.0407,0.0404,0.0416,0.0414,0.0412,0.0412,0,0,0,0,0,0,0,0.0574,0.0572,0.0549,0.0548,0.0546,0.054,0.0537,0.0508,0.0491,0.0523,0.0521,0.0518,0.0456,0.0451,0.0445,0.0403,0.0416,0.0413,0.0411,0.041,0.0371,0.0372,0,0,0,0,0,0,0.0578,0.0573,0.055,0.0548,0.0559,0.0539,0.0536,0.0532,0.0492,0.0487,0.0519,0.0518,0.0456,0.0449,0.0442,0.0466,0.0413,0.041,0.0408,0.0371,0.0371,0.0372,0,0,0,0,0,0,0.0579,0.0576,0.0551,0.056,0.0556,0.0539,0.0534,0.0531,0.0532,0.049,0.0483,0.0523,0.0455,0.0447,0.0436,0.0461,0.0408,0.0406,0.037,0.0371,0.0372,0.0486,0,0,0,0,0,0,0.058,0.0577,0.0576,0.056,0.0556,0.0553,0.0535,0.0531,0.053,0.0529,0.0491,0.0483,0.0455,0.0441,0.0433,0.0456,0.0403,0.0369,0.037,0.0372,0.0481,0.0491,0.0499,0,0,0,0,0,0.0581,0.059,0.0576,0.0573,0.0555,0.0554,0.0551,0.0538,0.0531,0.0537,0.0519,0.0485,0.0445,0.044,0.043,0.0452,0.0368,0.037,0.0371,0.0477,0.0489,0.0499,0,0,0,0,0,0,0.0606,0.0589,0.0572,0.0575,0.0566,0.0551,0.0553,0.0545,0.0536,0.0533,0.0496,0.0488,0.0488,0.0451,0.0446,0.0444,0.0399,0.0399,0.0483,0.0494,0.0502,0.0511,0.0401,0,0,0,0,0,0.0609,0.061,0.059,0.0593,0.0587,0.057,0.0568,0.056,0.0549,0.0545,0.0526,0.0501,0.0486,0.0476,0.0452,0.0451,0.0411,0.0456,0.0465,0.0473,0.0473,0.0442,0.0448,0.0378,0.0378,0.0378,0,0,0.0619,0.061,0.061,0.0598,0.0587,0.0599,0.0569,0.057,0.0592,0.0536,0.056,0.053,0.0492,0.0498,0.0493,0.0472,0.0475,0.0476,0.0483,0.0478,0.0444,0.0451,0.0457,0.0379,0.0379,0.0379,0,0,0.0649,0.0631,0.0641,0.0639,0.0627,0.0622,0.0626,0.0617,0.0621,0.0634,0.0604,0.0594,0.0571,0.0556,0.0543,0.0583,0.0523,0.0571,0.0626,0.0596,0.0602,0.0606,0.0577,0.0578,0.0576,0.0577,0.0577,0,0.0656,0.0669,0.0646,0.066,0.0669,0.0638,0.0662,0.0666,0.0662,0.0669,0.0654,0.0634,0.0602,0.0612,0.0628,0.0606,0.0574,0.0593,0.0609,0.0613,0.0615,0.0584,0.0584,0.0582,0.0582,0.0581,0.058,0,0.0693,0.0706,0.0715,0.0724,0.0734,0.0747,0.0748,0.0765,0.0765,0.076,0.077,0.0735,0.072,0.0712,0.0683,0.0691,0.0658,0.0627,0.0587,0.063,0.0594,0.0591,0.059,0.0588,0.0587,0.0585,0,0,0.0687,0.0732,0.0733,0.0761,0.0769,0.0787,0.0826,0.0847,0.0878,0.0866,0.0902,0.0874,0.0842,0.0823,0.0786,0.0761,0.0758,0.0707,0.0703,0.0687,0.0691,0.0676,0.0671,0.0729,0.0729,0.0729,0.0664,0,0.0714,0.0775,0.0786,0.0848,0.0877,0.0881,0.0926,0.0944,0.0952,0.0979,0.0941,0.0952,0.0889,0.089,0.0855,0.0787,0.0754,0.0778,0.0643,0.0639,0.0628,0.0669,0.0631,0.0571,0.0661,0.0661,0.066,0,0.073,0.0775,0.0847,0.0923,0.0935,0.0973,0.1036,0.1072,0.1091,0.1097,0.1088,0.1055,0.1032,0.0971,0.0868,0.0886,0.0794,0.0731,0.0726,0.0668,0.062,0.0538,0.0562,0.0427,0.0655,0.0656,0.0656,0,0.0738,0.0813,0.0882,0.0904,0.0982,0.1024,0.1066,0.1102,0.1146,0.1171,0.1202,0.1149,0.1145,0.103,0.0902,0.0884,0.078,0.0738,0.0634,0.0631,0.0549,0.054,0.0432,0.065,0.0651,0.0651,0.0651,0,0.0757,0.0808,0.0897,0.0933,0.102,0.106,0.1143,0.1177,0.1233,0.1297,0.126,0.1301,0.1158,0.1086,0.0941,0.0792,0.0806,0.065,0.0617,0.0589,0.0585,0.0422,0.0357,0.0648,0.0649,0.0649,0.065,0,0.0751,0.0809,0.0887,0.0986,0.1025,0.1085,0.1199,0.1261,0.1309,0.14,0.1419,0.1412,0.1334,0.1178,0.1003,0.0859,0.0623,0.064,0.0622,0.0589,0.0373,0.0316,0.0172,0.0114,0.0523,0.0522,0.0521,0,0.0761,0.08,0.0916,0.0975,0.1024,0.1124,0.1199,0.1283,0.1363,0.1475,0.153,0.1499,0.1488,0.1238,0.0986,0.0741,0.0601,0.0534,0.0491,0.0365,0.0277,0.0239,0.0198,0.0424,0.0423,0.0422,0.0421,0,0.0767,0.08,0.0869,0.0988,0.1082,0.1196,0.1319,0.14,0.1519,0.1611,0.1716,0.1718,0.1503,0.1258,0.0931,0.0745,0.0442,0.0505,0.0369,0.0194,0.0148,0.0075,0.0465,0.0411,0.0412,0.0413,0.0414,0.0414,0.0763,0.0809,0.0901,0.1012,0.1123,0.1272,0.138,0.1525,0.1676,0.184,0.183,0.1846,0.15,0.1065,0.0813,0.0346,0.0376,0.0181,0.0124,0.0098,0.0039,0.0421,0.0338,0.0339,0.0339,0.0339,0.034,0,0.0769,0.0834,0.0929,0.1077,0.1196,0.1264,0.1466,0.1596,0.1794,0.1903,0.1986,0.1798,0.1358,0.0929,0.0327,0.0014,-0.0097,-0.0159,-0.0244,-0.0267,0.0054,0.0047,-0.0096,-0.0095,-0.0095,-0.0095,-0.0095,-0.0095,0.0783,0.0865,0.0922,0.1113,0.1223,0.1413,0.1538,0.1736,0.1864,0.1998,0.1988,0.1972,0.165,0.0559,-0.015,-0.0321,-0.0515,-0.0581,-0.0639,-0.0451,-0.0424,-0.0399,-0.0421,-0.0659,-0.066,-0.095,-0.0953,-0.0955]}],[{"header":{"parameterUnit":"m.s-1","parameterCategory":2,"la1":30.2991,"la2":30.254,"lo1":-89.0895,"lo2":-89.0444,"dy":0.0017,"dx":0.0017,"nx":28,"ny":28,"refTime":"2024-02-27T03:00:00:Z","depth":"2","parameterNumber":2,"parameterNumberName":"U-component_of_CURRENTS"},"data":[0,0,0,0,0,0,0,0,0,0,0,0,0,0,0,0,0,0,0,0,0,0,0,0,0,0,0,0,0,0,0,0,0,0,0,0,0,0,0,0,0,0,0,0,0,0,0,0,0,0,0,0,0,0,0,0,0,0,0.2581,0.2582,0,0.2592,0.2591,0.259,0.2604,0.2605,0.2607,0.2608,0.263,0.2629,0.2628,0,0,0,0,0,0,0,0,0,0,0,0,0,0.2485,0.2486,0.2581,0.2582,0.2583,0.2592,0.2591,0.259,0.2604,0.2605,0.2607,0.2609,0.263,0.2629,0.2628,0,0,0,0,0,0,0,0,0,0,0,0,0,0.2501,0.2486,0.258,0.2601,0.2604,0.2592,0.2591,0.2589,0.2603,0.2605,0.2608,0.261,0.2631,0.2629,0.2628,0.2577,0,0,0.2625,0.2624,0,0,0,0,0,0,0,0,0.25,0.2503,0.2597,0.26,0.2604,0.2611,0.2566,0.259,0.2603,0.2589,0.2608,0.2611,0.2632,0.2631,0.2608,0.2578,0.2579,0.2624,0.2624,0.2623,0.2623,0,0,0,0,0,0,0,0.2499,0.2502,0.2571,0.2599,0.2603,0.2582,0.2586,0.2569,0.2588,0.259,0.2595,0.2617,0.2632,0.2609,0.2609,0.2579,0.2625,0.2623,0.2623,0.2622,0.2637,0.2638,0,0,0,0,0,0,0.2528,0.2502,0.2571,0.2573,0.2572,0.2583,0.2587,0.2595,0.2588,0.2593,0.2615,0.2618,0.261,0.261,0.261,0.2711,0.2623,0.2622,0.2621,0.2636,0.2637,0.2638,0,0,0,0,0,0,0.2525,0.2533,0.2571,0.2549,0.2555,0.2584,0.2592,0.2594,0.2642,0.2609,0.2612,0.2671,0.2612,0.2612,0.2643,0.2706,0.2622,0.2621,0.2634,0.2636,0.2638,0.2809,0,0,0,0,0,0,0.2522,0.2531,0.2542,0.2551,0.2557,0.2609,0.2592,0.2593,0.2655,0.266,0.2656,0.2656,0.2614,0.2645,0.2642,0.2703,0.262,0.2633,0.2635,0.2637,0.2802,0.2816,0.2828,0,0,0,0,0,0.2518,0.2539,0.2542,0.2551,0.2572,0.2613,0.2613,0.2631,0.2657,0.2681,0.2679,0.266,0.2655,0.2645,0.2641,0.2704,0.2632,0.2635,0.2637,0.2796,0.2813,0.2828,0,0,0,0,0,0,0.2486,0.2543,0.2547,0.2578,0.2614,0.2622,0.2637,0.2673,0.2687,0.2682,0.2674,0.2673,0.2727,0.268,0.2669,0.2708,0.2641,0.2642,0.2763,0.2779,0.2792,0.2756,0.2619,0,0,0,0,0,0.2488,0.2523,0.2568,0.2589,0.261,0.2636,0.2658,0.2671,0.269,0.2701,0.2717,0.2708,0.2717,0.2726,0.2709,0.2729,0.2703,0.2763,0.2776,0.2788,0.2753,0.2791,0.2805,0.2646,0.2646,0.2646,0,0,0.249,0.2515,0.2541,0.2587,0.2598,0.2623,0.2652,0.2688,0.2719,0.2697,0.2747,0.2765,0.2734,0.2761,0.278,0.2742,0.2827,0.2791,0.2802,0.2759,0.2795,0.2811,0.2825,0.2648,0.2648,0.2647,0,0,0.2496,0.2522,0.2555,0.2593,0.2635,0.2633,0.2673,0.2718,0.2752,0.2791,0.28,0.2849,0.2853,0.2852,0.2848,0.2917,0.2904,0.294,0.2976,0.3018,0.3031,0.3043,0.3071,0.3083,0.2939,0.294,0.294,0,0.2497,0.2528,0.2571,0.2606,0.2634,0.2657,0.269,0.2713,0.277,0.2804,0.2819,0.2873,0.2878,0.2921,0.2955,0.295,0.2971,0.2933,0.3039,0.3049,0.3058,0.3083,0.3095,0.2948,0.2947,0.2946,0.2945,0,0.2513,0.2558,0.2578,0.2619,0.2651,0.268,0.2724,0.2772,0.2815,0.284,0.2926,0.2938,0.2964,0.3009,0.3005,0.309,0.3086,0.3068,0.3009,0.3085,0.3106,0.3115,0.296,0.2957,0.2955,0.2953,0,0,0.2524,0.2576,0.26,0.2623,0.2664,0.2693,0.2739,0.279,0.2838,0.2896,0.2972,0.3023,0.3053,0.3048,0.3087,0.3136,0.3258,0.3146,0.3144,0.3189,0.3364,0.3215,0.321,0.3292,0.3293,0.3295,0.3369,0,0.2536,0.2581,0.2609,0.2663,0.2698,0.2734,0.2772,0.282,0.2869,0.2943,0.2989,0.3053,0.3061,0.3115,0.3164,0.3239,0.3283,0.3238,0.3263,0.3262,0.3135,0.3215,0.2946,0.2976,0.3378,0.3379,0.338,0,0.2583,0.2602,0.2643,0.2698,0.2716,0.2742,0.2811,0.2847,0.2928,0.2981,0.3043,0.3079,0.3169,0.3166,0.3281,0.3269,0.3314,0.3358,0.3362,0.315,0.3127,0.2952,0.2977,0.3395,0.3393,0.3392,0.3391,0,0.2594,0.2657,0.2674,0.27,0.274,0.2783,0.2801,0.2872,0.2912,0.302,0.3068,0.3143,0.3211,0.3272,0.3345,0.3343,0.3464,0.3456,0.335,0.3341,0.3065,0.3026,0.3512,0.3512,0.3511,0.3511,0.3511,0,0.2612,0.266,0.2691,0.2714,0.2741,0.2792,0.2837,0.2886,0.2961,0.3004,0.3086,0.3146,0.3251,0.3322,0.3369,0.3377,0.3471,0.3347,0.3345,0.3118,0.3085,0.3388,0.3373,0.3514,0.3513,0.3513,0.3512,0,0.2633,0.2652,0.2693,0.2737,0.2752,0.2782,0.2832,0.2863,0.2955,0.3027,0.3067,0.3182,0.3273,0.3339,0.3453,0.3394,0.3427,0.3404,0.312,0.308,0.3273,0.3266,0.3283,0.3278,0.3274,0.3271,0.3268,0,0.2613,0.2645,0.2695,0.2697,0.2718,0.2762,0.2777,0.2856,0.289,0.3036,0.3062,0.3186,0.3223,0.3299,0.3211,0.3202,0.3372,0.2977,0.2881,0.325,0.3249,0.3248,0.3246,0.2618,0.2611,0.2604,0.2599,0,0.2573,0.2619,0.2616,0.2652,0.2674,0.2684,0.2726,0.2743,0.2843,0.2897,0.2976,0.3025,0.306,0.2905,0.2878,0.2845,0.2944,0.284,0.3322,0.2697,0.2623,0.2622,0.2642,0.2541,0.2547,0.2551,0.2554,0.2557,0.2507,0.2518,0.2542,0.2567,0.258,0.2586,0.2564,0.2605,0.2616,0.2632,0.2756,0.2723,0.2703,0.2475,0.2409,0.236,0.2539,0.2476,0.2497,0.2525,0.2413,0.2334,0.2178,0.2181,0.2184,0.2187,0.2189,0,0.2418,0.246,0.2457,0.2458,0.2433,0.2506,0.25,0.2432,0.2391,0.2415,0.2402,0.2125,0.1999,0.207,0.1848,0.1796,0.1787,0.1804,0.1799,0.1854,0.1904,0.1763,0.1355,0.1353,0.1351,0.1349,0,0,0.2348,0.2345,0.2369,0.2305,0.2322,0.2279,0.2256,0.2143,0.2108,0.1957,0.1891,0.1879,0.1972,0.1613,0.1546,0.1457,0.1663,0.1403,0.2064,0.2114,0.2163,0.227,0.2111,0,0,0,0,0]},{"header":{"parameterUnit":"m.s-1","parameterCategory":2,"la1":30.2991,"la2":30.254,"lo1":-89.0895,"lo2":-89.0444,"dy":0.0017,"dx":0.0017,"nx":28,"ny":28,"refTime":"2024-02-27T03:00:00:Z","depth":"2","parameterNumber":3,"parameterNumberName":"V-component_of_CURRENTS"},"data":[0,0,0,0,0,0,0,0,0,0,0,0,0,0,0,0,0,0,0,0,0,0,0,0,0,0,0,0,0,0,0,0,0,0,0,0,0,0,0,0,0,0,0,0,0,0,0,0,0,0,0,0,0,0,0,0,0,0,0.0121,0.012,0,0.0117,0.0117,0.0117,0.0162,0.0163,0.0164,0.0165,0.013,0.0128,0.0126,0,0,0,0,0,0,0,0,0,0,0,0,0,0.0128,0.0128,0.0121,0.012,0.012,0.0117,0.0117,0.0117,0.0162,0.0163,0.0165,0.0166,0.013,0.0128,0.0126,0,0,0,0,0,0,0,0,0,0,0,0,0,0.0126,0.0128,0.0121,0.0141,0.0142,0.0117,0.0117,0.0117,0.0162,0.0163,0.0165,0.0166,0.0131,0.0128,0.0125,0.0076,0,0,0.0116,0.0115,0,0,0,0,0,0,0,0,0.0126,0.0126,0.0138,0.0139,0.0141,0.014,0.0106,0.0101,0.0161,0.0156,0.0165,0.0167,0.0127,0.0125,0.0124,0.0074,0.0072,0.0116,0.0114,0.0113,0.0112,0,0,0,0,0,0,0,0.0126,0.0126,0.0121,0.0137,0.0139,0.0136,0.0138,0.0105,0.0134,0.0157,0.016,0.0156,0.0129,0.0127,0.0123,0.0072,0.0116,0.0114,0.0112,0.0111,0.0039,0.0038,0,0,0,0,0,0,0.0123,0.0127,0.0121,0.0121,0.0135,0.0135,0.0137,0.014,0.0135,0.0136,0.0154,0.0158,0.0131,0.0127,0.0122,0.0176,0.0113,0.011,0.0109,0.0039,0.0038,0.0038,0,0,0,0,0,0,0.0123,0.0123,0.0121,0.0122,0.0121,0.0133,0.0136,0.0139,0.0184,0.0133,0.0134,0.0201,0.0132,0.0126,0.0123,0.017,0.0109,0.0107,0.0039,0.0039,0.0038,0.021,0,0,0,0,0,0,0.0124,0.0123,0.013,0.0122,0.0121,0.0145,0.0134,0.0138,0.0175,0.0181,0.0172,0.0168,0.0133,0.0127,0.012,0.0165,0.0104,0.0039,0.0039,0.0038,0.0204,0.0215,0.0225,0,0,0,0,0,0.0124,0.0134,0.0131,0.013,0.0128,0.0147,0.0148,0.0161,0.0177,0.0207,0.0189,0.0171,0.012,0.0125,0.0116,0.0162,0.0039,0.0039,0.0038,0.02,0.0213,0.0225,0,0,0,0,0,0,0.0122,0.0138,0.0135,0.0144,0.0159,0.0155,0.0168,0.0188,0.02,0.0192,0.0172,0.0166,0.0178,0.013,0.0138,0.0131,0.0074,0.0072,0.02,0.0212,0.0222,0.0223,0.0102,0,0,0,0,0,0.0125,0.0148,0.0154,0.0158,0.0169,0.0178,0.0189,0.0194,0.0195,0.0206,0.0212,0.0184,0.0158,0.0159,0.0121,0.0124,0.0068,0.0139,0.015,0.016,0.0149,0.0107,0.0114,0.0037,0.0037,0.0037,0,0,0.0127,0.013,0.0145,0.0162,0.0166,0.0192,0.0191,0.0206,0.0241,0.0192,0.025,0.0222,0.0162,0.0168,0.0169,0.0147,0.0154,0.0159,0.0169,0.0152,0.0107,0.0115,0.0122,0.0037,0.0037,0.0037,0,0,0.014,0.0143,0.0176,0.02,0.0211,0.0206,0.0228,0.0253,0.0285,0.0303,0.0284,0.0284,0.0259,0.0242,0.0219,0.0253,0.0205,0.0252,0.0322,0.0283,0.029,0.0295,0.0256,0.0257,0.0266,0.0266,0.0267,0,0.0151,0.0177,0.0187,0.0224,0.0248,0.0229,0.0272,0.0286,0.0315,0.0341,0.0332,0.0313,0.0284,0.0291,0.0312,0.0283,0.0251,0.0297,0.0302,0.0305,0.0308,0.0266,0.0264,0.0274,0.0274,0.0273,0.0272,0,0.0174,0.0224,0.0242,0.0285,0.0311,0.0335,0.0354,0.0399,0.0414,0.0416,0.0445,0.0403,0.0393,0.0397,0.0368,0.0389,0.0359,0.0323,0.0286,0.0327,0.0279,0.0274,0.0286,0.0283,0.0281,0.0279,0,0,0.0176,0.025,0.0269,0.0324,0.035,0.0381,0.0432,0.0474,0.0521,0.0521,0.0583,0.0547,0.0527,0.0498,0.0481,0.0462,0.0473,0.0421,0.0415,0.041,0.0397,0.0319,0.0305,0.0457,0.0456,0.0456,0.0367,0,0.0211,0.0293,0.0319,0.0419,0.0476,0.0499,0.0551,0.058,0.0597,0.0646,0.06,0.0617,0.0564,0.0583,0.0552,0.0493,0.0464,0.05,0.0331,0.0326,0.0274,0.0297,0.0314,0.023,0.0361,0.036,0.036,0,0.0253,0.0306,0.0404,0.0522,0.0549,0.0598,0.069,0.0733,0.076,0.0779,0.0772,0.0729,0.0712,0.0656,0.0549,0.0583,0.0498,0.0437,0.0432,0.0287,0.0237,0.02,0.0215,0.035,0.0351,0.0352,0.0352,0,0.0272,0.0394,0.0472,0.0511,0.0607,0.0682,0.0729,0.0778,0.0837,0.0873,0.0907,0.0838,0.0837,0.0711,0.0576,0.0574,0.0444,0.0412,0.025,0.0243,0.0181,0.0169,0.0314,0.0314,0.0315,0.0315,0.0315,0,0.0312,0.0399,0.0502,0.0556,0.0663,0.0727,0.0839,0.0886,0.0954,0.1026,0.0977,0.1018,0.0856,0.0761,0.0608,0.0412,0.0453,0.0253,0.0212,0.024,0.0235,0.0266,0.0262,0.0311,0.0312,0.0313,0.0313,0,0.0333,0.0392,0.051,0.0636,0.0684,0.0767,0.0917,0.0997,0.1058,0.1163,0.1183,0.1156,0.1031,0.0833,0.0636,0.0466,0.0278,0.0195,0.0236,0.02,0.0095,0.0101,-0.0001,-0.0005,-0.0008,-0.001,-0.0012,0,0.0339,0.0403,0.056,0.0634,0.0705,0.0839,0.0934,0.1038,0.1132,0.1253,0.1305,0.1234,0.118,0.0839,0.0525,0.0208,0.0217,0.0032,0.0004,0.0091,0.0062,0.0072,0.0081,0.0003,0.0001,-0.0,-0.0002,0,0.0357,0.0421,0.0498,0.066,0.0789,0.0929,0.1083,0.1168,0.1306,0.1393,0.1485,0.1453,0.1146,0.0819,0.0387,0.0188,0.0075,-0.0012,0.0077,0.0071,0.0085,0.0059,0.007,-0.0015,-0.0014,-0.0013,-0.0012,-0.0011,0.0355,0.0419,0.0541,0.0691,0.0839,0.1019,0.1143,0.1295,0.144,0.1557,0.1533,0.1469,0.114,0.0532,0.0238,-0.0058,-0.0064,-0.0163,-0.0154,-0.0144,-0.0137,-0.013,-0.0268,-0.0268,-0.0268,-0.0268,-0.0269,0,0.0365,0.0455,0.0579,0.0765,0.0926,0.1026,0.1244,0.1359,0.1535,0.1566,0.1584,0.1228,0.0866,0.0545,0.0076,-0.0219,-0.0193,-0.0275,-0.017,-0.0158,-0.0147,-0.0134,-0.0268,-0.0268,-0.0269,-0.0269,0,0,0.0373,0.0474,0.0552,0.0802,0.096,0.1206,0.1341,0.1483,0.1553,0.156,0.1487,0.1267,0.0908,0.0552,0.0188,-0.0017,-0.0009,-0.0056,-0.0037,0.0141,0.0157,-0.0078,-0.0047,0,0,0,0,0]}],[{"header":{"parameterUnit":"m.s-1","parameterCategory":2,"la1":30.2991,"la2":30.254,"lo1":-89.0895,"lo2":-89.0444,"dy":0.0017,"dx":0.0017,"nx":28,"ny":28,"refTime":"2024-02-27T03:00:00:Z","depth":"4","parameterNumber":2,"parameterNumberName":"U-component_of_CURRENTS"},"data":[0,0,0,0,0,0,0,0,0,0,0,0,0,0,0,0,0,0,0,0,0,0,0,0,0,0,0,0,0,0,0,0,0,0,0,0,0,0,0,0,0,0,0,0,0,0,0,0,0,0,0,0,0,0,0,0,0,0,0.0302,0.0303,0,0.0373,0.0374,0.0375,0.0393,0.0393,0.0392,0.0392,0.045,0.0452,0.0454,0,0,0,0,0,0,0,0,0,0,0,0,0,0.0262,0.0262,0.0302,0.0303,0.0304,0.0373,0.0374,0.0375,0.0393,0.0393,0.0392,0.0392,0.045,0.0452,0.0454,0,0,0,0,0,0,0,0,0,0,0,0,0,0.03,0.0262,0.0302,0.0322,0.0325,0.0373,0.0374,0.0375,0.0393,0.0393,0.0392,0.0392,0.0449,0.0452,0.0455,0.0482,0,0,0.0463,0.0464,0,0,0,0,0,0,0,0,0.0297,0.0301,0.0318,0.0321,0.0324,0.0375,0.0382,0.0411,0.0393,0.0366,0.0392,0.0391,0.0425,0.043,0.0443,0.0485,0.0488,0.0463,0.0465,0.0466,0.0467,0,0,0,0,0,0,0,0.0295,0.0298,0.0329,0.0319,0.0323,0.0355,0.0359,0.0387,0.0396,0.0368,0.037,0.038,0.0426,0.044,0.0444,0.0489,0.0463,0.0466,0.0468,0.0469,0.0521,0.052,0,0,0,0,0,0,0.0284,0.0295,0.0327,0.0331,0.031,0.0356,0.0361,0.0358,0.0397,0.0402,0.038,0.0381,0.0436,0.0441,0.0447,0.0476,0.0466,0.0469,0.0471,0.0521,0.052,0.052,0,0,0,0,0,0,0.0283,0.0286,0.0324,0.0317,0.0324,0.0357,0.0354,0.036,0.0398,0.0406,0.0411,0.0415,0.0435,0.0443,0.0457,0.0478,0.047,0.0473,0.0521,0.0521,0.052,0.0538,0,0,0,0,0,0,0.0281,0.0285,0.0294,0.0315,0.0324,0.0365,0.0355,0.0361,0.0403,0.0405,0.0437,0.0441,0.0436,0.0453,0.046,0.0482,0.0475,0.0522,0.0521,0.052,0.0537,0.0538,0.0538,0,0,0,0,0,0.0279,0.0282,0.0293,0.0298,0.033,0.0367,0.0375,0.0396,0.0406,0.0428,0.0424,0.0441,0.0454,0.0455,0.0463,0.0487,0.0522,0.0521,0.052,0.0537,0.0538,0.0538,0,0,0,0,0,0,0.0273,0.0285,0.0298,0.0306,0.0344,0.037,0.039,0.0416,0.0436,0.0436,0.0442,0.0444,0.0465,0.047,0.047,0.0495,0.049,0.0491,0.05,0.0501,0.0501,0.0532,0.0477,0,0,0,0,0,0.0276,0.0278,0.0309,0.0321,0.0336,0.0374,0.0398,0.0419,0.0434,0.0445,0.047,0.0474,0.0467,0.0479,0.0484,0.0508,0.0538,0.0525,0.0525,0.0526,0.0553,0.0622,0.0633,0.0518,0.0518,0.0518,0,0,0.0277,0.0286,0.0288,0.0321,0.0346,0.0382,0.0387,0.0427,0.0457,0.0448,0.0495,0.0488,0.0473,0.0482,0.0494,0.0492,0.0563,0.0525,0.0525,0.0554,0.0623,0.0635,0.0645,0.0517,0.0517,0.0517,0,0,0.0277,0.0288,0.0295,0.033,0.0377,0.0401,0.0421,0.0471,0.0488,0.0525,0.0508,0.0508,0.0536,0.0515,0.0504,0.0515,0.0563,0.0525,0.056,0.0625,0.0636,0.0647,0.0659,0.0671,0.0526,0.0526,0.0526,0,0.0288,0.0296,0.0309,0.0339,0.0376,0.0414,0.0455,0.0476,0.0529,0.0543,0.054,0.0555,0.0545,0.0533,0.0529,0.052,0.0562,0.0559,0.063,0.0641,0.0652,0.0662,0.0675,0.0527,0.0527,0.0527,0.0526,0,0.0296,0.0322,0.0332,0.0376,0.0421,0.0461,0.05,0.0539,0.0568,0.0592,0.061,0.0585,0.06,0.0582,0.0561,0.0615,0.0619,0.0625,0.0638,0.0665,0.0672,0.0685,0.0528,0.0528,0.0527,0.0527,0,0,0.0274,0.0327,0.0338,0.0372,0.0449,0.0486,0.053,0.058,0.0609,0.064,0.0675,0.0646,0.066,0.0649,0.0624,0.0667,0.0745,0.0693,0.0696,0.072,0.0882,0.0778,0.0782,0.0793,0.0796,0.0798,0.0844,0,0.0287,0.0336,0.0373,0.0446,0.0476,0.0536,0.0578,0.0628,0.0659,0.0701,0.0676,0.0701,0.0675,0.0686,0.0726,0.0725,0.079,0.0732,0.0841,0.0843,0.0761,0.0797,0.0809,0.0853,0.0856,0.0859,0.086,0,0.0292,0.032,0.0383,0.0471,0.0494,0.0552,0.0635,0.0679,0.0724,0.0749,0.0774,0.0782,0.0793,0.08,0.0852,0.0829,0.0891,0.0899,0.0902,0.082,0.0765,0.0829,0.0884,0.0882,0.088,0.0879,0.0877,0,0.0258,0.0341,0.0389,0.0423,0.0517,0.0563,0.0624,0.0691,0.0738,0.0792,0.0843,0.0851,0.0878,0.0931,0.092,0.0933,0.0988,0.0998,0.0965,0.0955,0.1029,0.1018,0.113,0.113,0.113,0.113,0.113,0,0.0257,0.0297,0.0377,0.0403,0.0471,0.0553,0.0635,0.0685,0.0774,0.0833,0.0877,0.0901,0.0941,0.0955,0.0958,0.0953,0.1022,0.0988,0.0978,0.1024,0.1013,0.1035,0.1024,0.1132,0.1131,0.1131,0.1131,0,0.0216,0.0268,0.0317,0.0414,0.0453,0.0503,0.0654,0.0703,0.0801,0.0884,0.0918,0.0977,0.0983,0.0977,0.1027,0.0999,0.0991,0.1004,0.1004,0.099,0.0915,0.0904,0.0989,0.0986,0.0984,0.0982,0.098,0,0.0201,0.0215,0.031,0.0345,0.0396,0.0489,0.0553,0.0687,0.0748,0.0895,0.0918,0.0989,0.1008,0.0955,0.0952,0.0936,0.0958,0.0957,0.0998,0.0929,0.091,0.0903,0.0895,0.0976,0.0975,0.0975,0.0974,0,0.0156,0.0188,0.0226,0.0292,0.0366,0.0449,0.0555,0.0601,0.0752,0.0867,0.0928,0.095,0.0961,0.0918,0.0916,0.0903,0.093,0.0932,0.094,0.098,0.0914,0.0896,0.0891,0.0966,0.0967,0.0968,0.0968,0,0.0122,0.0129,0.0181,0.0243,0.0321,0.0382,0.0451,0.0554,0.0647,0.0837,0.0827,0.0884,0.0947,0.0901,0.0857,0.0847,0.0884,0.089,0.0901,0.091,0.0856,0.0759,0.0775,0,0,0,0,0,0.0092,0.0096,0.0138,0.0201,0.0274,0.0328,0.0444,0.0515,0.0662,0.0707,0.0793,0.08,0.0813,0.0796,0.0775,0.0795,0.0845,0.0766,0.0848,0.0919,0.0928,0.0868,0,0,0,0,0,0,0.0074,0.0093,0.0112,0.0156,0.0192,0.0277,0.034,0.0436,0.0473,0.0621,0.0611,0.0759,0.0737,0.0816,0.0758,0.0762,0.0803,0.0813,0.0812,0.0913,0.0922,0.093,0.0871,0,0,0,0,0]},{"header":{"parameterUnit":"m.s-1","parameterCategory":2,"la1":30.2991,"la2":30.254,"lo1":-89.0895,"lo2":-89.0444,"dy":0.0017,"dx":0.0017,"nx":28,"ny":28,"refTime":"2024-02-27T03:00:00:Z","depth":"4","parameterNumber":3,"parameterNumberName":"V-component_of_CURRENTS"},"data":[0,0,0,0,0,0,0,0,0,0,0,0,0,0,0,0,0,0,0,0,0,0,0,0,0,0,0,0,0,0,0,0,0,0,0,0,0,0,0,0,0,0,0,0,0,0,0,0,0,0,0,0,0,0,0,0,0,0,0.0238,0.0238,0,0.0139,0.0137,0.0135,-0.0015,-0.0017,-0.0018,-0.002,-0.0248,-0.0252,-0.0257,0,0,0,0,0,0,0,0,0,0,0,0,0,0.023,0.023,0.0238,0.0238,0.0238,0.014,0.0137,0.0135,-0.0015,-0.0017,-0.0019,-0.002,-0.0246,-0.0252,-0.0257,0,0,0,0,0,0,0,0,0,0,0,0,0,0.0182,0.023,0.0238,0.016,0.0153,0.014,0.0137,0.0134,-0.0014,-0.0017,-0.0019,-0.0021,-0.0244,-0.0251,-0.0258,-0.0253,0,0,-0.0279,-0.0282,0,0,0,0,0,0,0,0,0.0185,0.018,0.0172,0.0166,0.0158,0.0082,0.0051,0.0002,-0.0014,0.0037,-0.002,-0.0023,-0.014,-0.0155,-0.0184,-0.0263,-0.0273,-0.028,-0.0284,-0.0287,-0.0289,0,0,0,0,0,0,0,0.0188,0.0184,0.0187,0.0172,0.0164,0.0108,0.0097,0.004,-0.0049,0.0032,0.0024,0.0032,-0.0147,-0.0177,-0.019,-0.0277,-0.0279,-0.0285,-0.029,-0.0292,-0.0472,-0.0473,0,0,0,0,0,0,0.0231,0.0188,0.019,0.0185,0.0179,0.0111,0.0099,0.0099,-0.0045,-0.0065,0.0035,0.0026,-0.0164,-0.0182,-0.0199,-0.0295,-0.0287,-0.0293,-0.0297,-0.0471,-0.0472,-0.0473,0,0,0,0,0,0,0.0231,0.0232,0.0195,0.0194,0.0186,0.0115,0.0116,0.0099,0.0053,-0.004,-0.0065,0.0006,-0.0166,-0.0189,-0.028,-0.0301,-0.0296,-0.0302,-0.0471,-0.0472,-0.0472,-0.0426,0,0,0,0,0,0,0.0231,0.0232,0.0243,0.0197,0.0189,0.0186,0.0119,0.0099,0.0069,0.0055,-0.0072,-0.0095,-0.017,-0.0269,-0.0287,-0.0311,-0.0308,-0.047,-0.0471,-0.0472,-0.0427,-0.0426,-0.0425,0,0,0,0,0,0.023,0.0245,0.0244,0.0245,0.0207,0.0188,0.0177,0.011,0.007,0.0056,-0.0046,-0.0092,-0.0289,-0.0275,-0.0296,-0.0322,-0.0469,-0.0471,-0.0472,-0.0428,-0.0426,-0.0425,0,0,0,0,0,0,0.023,0.0231,0.0228,0.0239,0.0225,0.0167,0.0157,0.0118,0.0029,0.0,-0.0101,-0.013,-0.0221,-0.0268,-0.0249,-0.0376,-0.0386,-0.0391,-0.0345,-0.0344,-0.0343,-0.0333,-0.0314,0,0,0,0,0,0.0251,0.0266,0.0255,0.0265,0.0265,0.0216,0.02,0.0154,0.0083,0.004,-0.0046,-0.0145,-0.0236,-0.0287,-0.0368,-0.0427,-0.0451,-0.0457,-0.0455,-0.0454,-0.046,-0.0496,-0.0498,-0.0478,-0.0478,-0.0478,0,0,0.0256,0.0261,0.0268,0.0269,0.0249,0.0235,0.0195,0.017,0.0127,0.0032,-0.0064,-0.0142,-0.0251,-0.0338,-0.038,-0.0384,-0.0471,-0.0455,-0.0454,-0.0461,-0.0497,-0.0499,-0.0501,-0.0479,-0.0478,-0.0478,0,0,0.0269,0.0281,0.0295,0.0291,0.0283,0.0248,0.0248,0.0192,0.0135,0.0058,-0.0036,-0.012,-0.0246,-0.0332,-0.0392,-0.0422,-0.0463,-0.0448,-0.0437,-0.0472,-0.0473,-0.0475,-0.0498,-0.0502,-0.0446,-0.0446,-0.0446,0,0.0276,0.029,0.0294,0.0302,0.0297,0.0258,0.0251,0.0196,0.0105,0.0056,0.0029,-0.0169,-0.0248,-0.0369,-0.0391,-0.0421,-0.0441,-0.0434,-0.0468,-0.0471,-0.0473,-0.0497,-0.0502,-0.0444,-0.0444,-0.0444,-0.0445,0,0.0291,0.0304,0.0312,0.031,0.0301,0.0292,0.0242,0.0194,0.013,0.0067,-0.0054,-0.0159,-0.0278,-0.0311,-0.0371,-0.0439,-0.0448,-0.0459,-0.0466,-0.0472,-0.0497,-0.0503,-0.0441,-0.0442,-0.0442,-0.0443,0,0,0.0301,0.032,0.0326,0.0327,0.0304,0.0293,0.0232,0.0166,0.011,0.0018,-0.0062,-0.0208,-0.0255,-0.0325,-0.0397,-0.0431,-0.0461,-0.045,-0.0453,-0.0461,-0.053,-0.0463,-0.0463,-0.0475,-0.0476,-0.0477,-0.0535,0,0.031,0.0334,0.0332,0.0327,0.0328,0.0285,0.0235,0.0163,0.0084,-0.0001,-0.0113,-0.0211,-0.0264,-0.0316,-0.0365,-0.0455,-0.0478,-0.0444,-0.0534,-0.0537,-0.0466,-0.0468,-0.0481,-0.054,-0.0542,-0.0543,-0.0543,0,0.0317,0.0335,0.0349,0.0333,0.0331,0.0314,0.0237,0.0187,0.0064,0.0003,-0.0105,-0.0192,-0.0305,-0.0315,-0.0457,-0.0434,-0.0475,-0.0519,-0.0522,-0.0481,-0.0481,-0.0539,-0.0555,-0.0554,-0.0553,-0.0552,-0.0552,0,0.0317,0.0335,0.035,0.0351,0.0331,0.0311,0.028,0.0182,0.0143,0.0013,-0.0023,-0.0183,-0.0249,-0.0343,-0.0453,-0.0457,-0.057,-0.0586,-0.0558,-0.0554,-0.0618,-0.0616,-0.064,-0.064,-0.064,-0.064,-0.064,0,0.0315,0.0323,0.0357,0.0367,0.0365,0.0336,0.0304,0.0241,0.0168,0.0123,-0.0008,-0.0077,-0.0252,-0.035,-0.0443,-0.0522,-0.0564,-0.0557,-0.0565,-0.0597,-0.0592,-0.0622,-0.0619,-0.0642,-0.0642,-0.0641,-0.0641,0,0.0298,0.0326,0.0353,0.0368,0.037,0.0369,0.0358,0.0328,0.0261,0.0203,0.0172,0.0002,-0.013,-0.0274,-0.0431,-0.0487,-0.058,-0.0581,-0.0597,-0.0605,-0.0546,-0.054,-0.0575,-0.0573,-0.0572,-0.057,-0.0569,0,0.0291,0.0307,0.0372,0.0401,0.0413,0.0418,0.0415,0.0371,0.0346,0.0244,0.0214,0.0084,-0.0035,-0.0218,-0.0367,-0.0518,-0.0522,-0.0565,-0.0567,-0.0535,-0.054,-0.0537,-0.0533,-0.0567,-0.0566,-0.0566,-0.0565,0,0.0277,0.0315,0.0346,0.0423,0.0454,0.0476,0.0468,0.0449,0.0388,0.0365,0.0247,0.0124,-0.0009,-0.0197,-0.029,-0.0406,-0.0552,-0.0549,-0.0553,-0.0555,-0.0525,-0.0531,-0.0529,-0.056,-0.0561,-0.0561,-0.0562,0,0.0276,0.0304,0.0374,0.0422,0.0493,0.0504,0.0485,0.0453,0.0431,0.0328,0.0289,0.0125,0.0023,-0.0136,-0.0244,-0.0332,-0.0357,-0.039,-0.0403,-0.0411,-0.0341,-0.0277,-0.024,0,0,0,0,0,0.0273,0.0297,0.0358,0.0419,0.0496,0.0533,0.0517,0.0486,0.0436,0.0378,0.0337,0.0214,0.0036,-0.0076,-0.0148,-0.0216,-0.0375,-0.0303,-0.042,-0.0529,-0.0535,-0.0474,0,0,0,0,0,0,0.0272,0.0325,0.0352,0.0426,0.047,0.0533,0.0527,0.0475,0.0427,0.0368,0.0264,0.0237,0.005,0.0103,-0.0131,-0.0163,-0.0241,-0.0381,-0.0382,-0.0525,-0.0531,-0.0536,-0.0476,0,0,0,0,0]}]]